Weather in Rassvet

Russia / Republic of North Ossetia — Alania     43°04′53″N   44°25′25″E
temp.,
°C
wind,
m/s
gust,
m/s
humid.,
%
clouds,
%
prec.,
mm/h
press.,
hPa
HPBL,
m
14 august, sun
sun1400:00+19s32400 0.0 101030
03:00+18s22410 0.0 100917
06:00+18s22500 0.0 100919
09:00+24n11420 0.0 1007348
12:00+28n22370 0.0 1006851
15:00+30nw22340 0.0 1005979
18:00+26sw12520 0.0 100540
21:00+22s32470 0.0 100733
15 august, mon
mon1500:00+21s32400 0.0 100730
03:00+20s22400 0.0 100622
06:00+20s21470 0.0 100715
09:00+26n11400 0.0 1007349
12:00+30n22340 0.0 1006894
15:00+32nnw22320 0.0 1004912
18:00+28wsw12500 0.0 100538
21:00+23s43380 0.0 100741
16 august, tue
tue1600:00+22s32350 0.0 100834
03:00+21s22360 0.0 100820
06:00+20ssw22450 0.0 100918
09:00+25nw23430 0.0 1010454
12:00+29nw23390 0.0 10101125
15:00+31nw12370 0.0 10091320
18:00+28s12520 0.0 100932
21:00+24s32500 0.0 101134
17 august, wed
wed1700:00+23s32400 0.0 101227
03:00+22s32380 0.0 101222
06:00+21s22470 0.0 101222
09:00+27n21430 0.0 1011472
12:00+31n22350 0.0 10091291
15:00+33nw23310 0.0 10071273
18:00+29sw12490 0.0 100843
21:00+23s43330 0.0 100950
18 august, thu
thu1800:00+22s33310 0.0 100836
03:00+21s33380 0.0 100830
06:00+21s32433 0.0 100923
09:00+27nw223721 0.1 1009443
12:00+31n21334 0.0 10071190
15:00+31w223515 0.0 1006776
18:00+29ssw22460 0.0 100622
21:00+23s433596 0.0 100748